Olathe, KS

4:38 AM CDT on May 23, 2018 (GMT -0500)
Johnson County Executive

Weather History for KOJC - April, 2013

Change the Weather History Date:

Wednesday, April 3, 2013

  Actual Average Record
Temperature  
Mean Temperature 42 °F 51 °F  
Max Temperature 51 °F 62 °F 88 °F (2011)
Min Temperature 32 °F 41 °F 13 °F (1975)
Degree Days  
Heating Degree Days 23 14  
Month to date heating degree days 73 43  
Since 1 July heating degree days 4551 4560  
Cooling Degree Days 0 0  
Month to date cooling degree days 0 0  
Year to date cooling degree days 1 1  
Moisture  
Dew Point 21 °F    
Average Humidity 50    
Maximum Humidity 66    
Minimum Humidity 33    
Precipitation  
Precipitation 0.00 in 0.08 in 1.85 in (1941)
Month to date precipitation 0.00 0.25  
Year to date precipitation 5.20 5.57  
Sea Level Pressure  
Sea Level Pressure 30.30 in    
Wind  
Wind Speed 7 mph (ENE)    
Max Wind Speed 16 mph    
Max Gust Speed 22 mph    
Visibility 10 miles    
Events      
T = Trace of Precipitation, MM = Missing Value Source: NWS Daily Summary

Daily Weather History Graph

Daily Weather History Graph

Search for Another Location

Airport or City:

Astronomy

Apr. 03, 2013 Rise Set
Actual Time 7:00 AM CDT 7:44 PM CDT
Civil Twilight 6:33 AM CDT 8:11 PM CDT
Nautical Twilight 6:01 AM CDT 8:43 PM CDT
Astronomical Twilight 5:28 AM CDT 9:16 PM CDT
Moon 2:38 AM CDT (4/3) 1:01 PM CDT (4/3)
Length of Visible Light 13h 38m
Length of Day
12h 44m
Last Quarter, 44% of the Moon is Illuminated
Apr 3
Last Quarter
Apr 10
New
Apr 18
First Quarter
Apr 25
Full
May 2
Last Quarter

Hourly Weather History & Observations

Time (CDT) Temp. Windchill Dew Point Humidity Pressure Visibility Wind Dir Wind Speed Gust Speed Precip Events Conditions
12:53 AM 37.0 °F 32.4 °F 21.0 °F 52% 30.30 in 10.0 mi East 5.8 mph - N/A   Clear
1:53 AM 37.0 °F 33.3 °F 21.0 °F 52% 30.28 in 10.0 mi ENE 4.6 mph - N/A   Clear
2:53 AM 35.1 °F 30.1 °F 21.9 °F 59% 30.29 in 10.0 mi ENE 5.8 mph - N/A   Clear
3:53 AM 34.0 °F 28.8 °F 21.0 °F 59% 30.29 in 10.0 mi ENE 5.8 mph - N/A   Clear
4:53 AM 33.1 °F 26.9 °F 23.0 °F 66% 30.31 in 10.0 mi ENE 6.9 mph - N/A   Clear
5:53 AM 32.0 °F 24.8 °F 23.0 °F 69% 30.32 in 10.0 mi ENE 8.1 mph - N/A   Clear
6:53 AM 32.0 °F 24.8 °F 23.0 °F 69% 30.34 in 10.0 mi ENE 8.1 mph - N/A   Clear
7:53 AM 33.1 °F 26.1 °F 23.0 °F 66% 30.37 in 10.0 mi East 8.1 mph - N/A   Clear
8:53 AM 37.0 °F 29.3 °F 23.0 °F 57% 30.36 in 10.0 mi East 11.5 mph - N/A   Clear
9:53 AM 41.0 °F 33.9 °F 23.0 °F 49% 30.35 in 10.0 mi East 12.7 mph - N/A   Clear
10:53 AM 43.0 °F 38.2 °F 21.9 °F 43% 30.36 in 10.0 mi East 8.1 mph - N/A   Clear
11:53 AM 45.0 °F 41.2 °F 21.0 °F 39% 30.36 in 10.0 mi East 6.9 mph - N/A   Clear
12:53 PM 46.0 °F 41.4 °F 21.0 °F 37% 30.34 in 10.0 mi ENE 9.2 mph - N/A   Clear
1:53 PM 48.9 °F - 21.9 °F 35% 30.32 in 10.0 mi NE 9.2 mph - N/A   Clear
2:53 PM 48.0 °F - 23.0 °F 37% 30.30 in 10.0 mi ENE 6.9 mph - N/A   Clear
3:53 PM 50.0 °F - 23.0 °F 35% 30.28 in 10.0 mi North 9.2 mph - N/A   Clear
4:53 PM 48.9 °F - 23.0 °F 36% 30.26 in 10.0 mi ENE 10.4 mph - N/A   Clear
5:53 PM 48.0 °F - 23.0 °F 37% 30.25 in 10.0 mi ENE 8.1 mph - N/A   Clear
6:53 PM 46.9 °F - 21.9 °F 37% 30.25 in 10.0 mi ENE 10.4 mph - N/A   Clear
7:53 PM 46.0 °F 41.9 °F 19.9 °F 35% 30.25 in 10.0 mi East 8.1 mph - N/A   Clear
8:53 PM 45.0 °F 42.6 °F 18.0 °F 34% 30.25 in 10.0 mi East 4.6 mph - N/A   Clear
9:53 PM 43.0 °F 40.3 °F 18.0 °F 37% 30.26 in 10.0 mi ENE 4.6 mph - N/A   Clear
10:53 PM 43.0 °F 41.3 °F 18.0 °F 37% 30.25 in 10.0 mi NE 3.5 mph - N/A   Clear
11:53 PM 41.0 °F 39.0 °F 19.0 °F 41% 30.25 in 10.0 mi ENE 3.5 mph - N/A   Scattered Clouds